Starlink 32466

operational
NORAD ID: 61859 Int'l Des: 2024-202 Owner: SPXS Country: US Constellation: starlink
LEOCIRCULAR

About Starlink 32466

Description loading...

Live Position

Loading 3D Globe...

Upcoming Passes

Altitude History

Altitude vs Time

uPlot chart will show altitude changes over time

Two-Line Element Set

1 61859U 24202Q 26036.10210227 -.00000213 00000-0 17830-5 0 9992
2 61859 42.9981 62.0381 0000370 261.1547 98.9262 15.27569138 70358
Epoch: Feb 5, 2026 • Age: 7 hours

Current Status

Altitude 496.1 km
Velocity 7.62 km/s
Sub-Earth Point -42.97°S, 52.33°E
Launch Date Nov 7, 2024
Age 1.2 years
Type internet

Technical Details

Classification Payload
Mass 730.00 kg
Dry Mass 700.00 kg
Total Mass 730.00 kg
Length 0.30 m
Diameter 4.10 m
Span 29.00 m
Shape Box + pan
Manufacturer SPXS
Bus Type Starlink V2M
Phase Status In Orbit
Owner/State SPXS/US

Large Constellations

Loading constellations...